Terminal Aerodrome Forecast
Issued by NWS Cleveland, OH

Home | Current Version | Previous Version | Graphics & Text | Print | Product List | Glossary On
Versions: 1 2 3 4 5 6 7 8 9 10 11 12 13 14 15 16
000
FTUS41 KCLE 301139
TAFCAK
TAF
KCAK 301139Z 3012/3112 VRB03KT 4SM BR VCSH OVC040
     FM301400 23008KT P6SM BKN050 OVC150
     FM301900 23008KT P6SM VCTS BKN050CB
     FM310200 22004KT P6SM FEW150 SCT250
     FM311000 23004KT 4SM BR SCT250=

USA.gov is the U.S. government's official web portal to all federal, state and local government web resources and services.